| time (UTC) | temp C | wind direction | speed KPH | gust KPH | rain 1hr cm | rain 24hr cm | rain mn cm | humidity % | barometer mb |
| 20260906111826 | 33 | 244 | 6.4 | 0.0 | 0.00 | 0.00 | 0.00 | 42 | 1016.3 |
| 20260906110829 | 33 | 200 | 6.4 | 0.0 | 0.00 | 0.00 | 0.00 | 44 | 1016.3 |
| 20260906105828 | 34 | 180 | 6.4 | 0.0 | 0.00 | 0.00 | 0.00 | 42 | 1016.2 |
| 20260906104835 | 34 | 189 | 4.8 | 0.0 | 0.00 | 0.00 | 0.00 | 41 | 1016.2 |
| 20260906103838 | 33 | 273 | 3.2 | 0.0 | 0.00 | 0.00 | 0.00 | 44 | 1016.1 |
| 20260906102836 | 33 | 197 | 4.8 | 0.0 | 0.00 | 0.00 | 0.00 | 46 | 1016.2 |
| 20260906101825 | 33 | 211 | 4.8 | 0.0 | 0.00 | 0.00 | 0.00 | 46 | 1016.2 |
| 20260906100830 | 33 | 163 | 3.2 | 0.0 | 0.00 | 0.00 | 0.00 | 46 | 1016.3 |
| 20260906095833 | 33 | 206 | 3.2 | 0.0 | 0.00 | 0.00 | 0.00 | 44 | 1016.3 |
| 20260906094853 | 33 | 186 | 3.2 | 0.0 | 0.00 | 0.00 | 0.00 | 47 | 1016.4 |
| 20260906093843 | 34 | 213 | 1.6 | 0.0 | 0.00 | 0.00 | 0.00 | 44 | 1016.4 |
| 20260906092840 | 33 | 207 | 3.2 | 0.0 | 0.00 | 0.00 | 0.00 | 44 | 1016.6 |
| 20260906091841 | 33 | 246 | 3.2 | 0.0 | 0.00 | 0.00 | 0.00 | 43 | 1016.7 |
| 20260906090832 | 33 | 238 | 3.2 | 0.0 | 0.00 | 0.00 | 0.00 | 43 | 1016.7 |
| 20260906085828 | 33 | 241 | 3.2 | 0.0 | 0.00 | 0.00 | 0.00 | 44 | 1016.7 |
| 20260906084845 | 33 | 252 | 3.2 | 0.0 | 0.00 | 0.00 | 0.00 | 44 | 1016.7 |
| 20260906083842 | 32 | 182 | 4.8 | 0.0 | 0.00 | 0.00 | 0.00 | 45 | 1016.9 |
| 20260906082842 | 33 | 238 | 3.2 | 0.0 | 0.00 | 0.00 | 0.00 | 42 | 1016.7 |
| 20260906081838 | 33 | 205 | 1.6 | 0.0 | 0.00 | 0.00 | 0.00 | 38 | 1016.8 |
| 20260906080828 | 33 | 306 | 1.6 | 0.0 | 0.00 | 0.00 | 0.00 | 35 | 1016.8 |
| 20260906075838 | 32 | 248 | 1.6 | 0.0 | 0.00 | 0.00 | 0.00 | 36 | 1016.8 |
| 20260906074837 | 32 | 258 | 1.6 | 0.0 | 0.00 | 0.00 | 0.00 | 36 | 1016.9 |
| 20260906073830 | 32 | 253 | 1.6 | 0.0 | 0.00 | 0.00 | 0.00 | 36 | 1016.8 |
| 20260906072830 | 31 | 259 | 1.6 | 0.0 | 0.00 | 0.00 | 0.00 | 36 | 1016.7 |
| 20260906071831 | 31 | 318 | 1.6 | 0.0 | 0.00 | 0.00 | 0.00 | 36 | 1016.7 |
| 20260906070842 | 31 | 254 | 1.6 | 0.0 | 0.00 | 0.00 | 0.00 | 37 | 1016.6 |
| 20260906065833 | 30 | 355 | 1.6 | 0.0 | 0.00 | 0.00 | 0.00 | 38 | 1016.5 |
| 20260906064835 | 30 | 346 | 1.6 | 0.0 | 0.00 | 0.00 | 0.00 | 38 | 1016.4 |
| 20260906063853 | 30 | 336 | 0.0 | 0.0 | 0.00 | 0.00 | 0.00 | 39 | 1016.3 |
| 20260906062841 | 29 | 336 | 0.0 | 0.0 | 0.00 | 0.00 | 0.00 | 39 | 1016.2 |
| 20260906061837 | 29 | 336 | 0.0 | 0.0 | 0.00 | 0.00 | 0.00 | 40 | 1016.1 |
| 20260906060854 | 28 | 336 | 1.6 | 0.0 | 0.00 | 0.00 | 0.00 | 42 | 1016.0 |
| 20260906055842 | 28 | 336 | 1.6 | 0.0 | 0.00 | 0.00 | 0.00 | 43 | 1016.0 |
| 20260906054831 | 27 | 336 | 3.2 | 0.0 | 0.00 | 0.00 | 0.00 | 43 | 1015.9 |
| 20260906053832 | 27 | 336 | 1.6 | 0.0 | 0.00 | 0.00 | 0.00 | 43 | 1015.9 |
| 20260906052853 | 27 | 102 | 0.0 | 0.0 | 0.00 | 0.00 | 0.00 | 43 | 1015.9 |
| 20260906051840 | 27 | 102 | 0.0 | 0.0 | 0.00 | 0.00 | 0.00 | 43 | 1015.9 |
| 20260906050845 | 27 | 102 | 1.6 | 0.0 | 0.00 | 0.00 | 0.00 | 44 | 1015.9 |
| 20260906045834 | 26 | 102 | 0.0 | 0.0 | 0.00 | 0.00 | 0.00 | 43 | 1015.9 |
| 20260906044826 | 26 | 102 | 0.0 | 0.0 | 0.00 | 0.00 | 0.00 | 44 | 1015.9 |
| 20260906043827 | 26 | 102 | 0.0 | 0.0 | 0.00 | 0.00 | 0.00 | 44 | 1015.8 |
| 20260906042848 | 26 | 102 | 1.6 | 0.0 | 0.00 | 0.00 | 0.00 | 44 | 1015.8 |
| 20260906041838 | 26 | 102 | 1.6 | 0.0 | 0.00 | 0.00 | 0.00 | 44 | 1015.6 |
| 20260906040841 | 26 | 102 | 0.0 | 0.0 | 0.00 | 0.00 | 0.00 | 43 | 1015.5 |
| 20260906035831 | 25 | 102 | 1.6 | 0.0 | 0.00 | 0.00 | 0.00 | 43 | 1015.5 |
| 20260906034852 | 25 | 36 | 1.6 | 0.0 | 0.00 | 0.00 | 0.00 | 43 | 1015.4 |
| 20260906033842 | 25 | 16 | 3.2 | 0.0 | 0.00 | 0.00 | 0.00 | 43 | 1015.3 |
| 20260906032843 | 25 | 360 | 3.2 | 0.0 | 0.00 | 0.00 | 0.00 | 43 | 1015.2 |
| 20260906031835 | 25 | 22 | 3.2 | 0.0 | 0.00 | 0.00 | 0.00 | 43 | 1015.1 |
| 20260906030832 | 25 | 346 | 1.6 | 0.0 | 0.00 | 0.00 | 0.00 | 44 | 1015.2 |
| 20260906025825 | 25 | 346 | 1.6 | 0.0 | 0.00 | 0.00 | 0.00 | 44 | 1015.1 |
| 20260906024835 | 25 | 346 | 1.6 | 0.0 | 0.00 | 0.00 | 0.00 | 44 | 1015.0 |
| 20260906023838 | 25 | 346 | 0.0 | 0.0 | 0.00 | 0.00 | 0.00 | 44 | 1014.7 |
| 20260906022835 | 25 | 346 | 1.6 | 0.0 | 0.00 | 0.00 | 0.00 | 44 | 1014.8 |
| 20260906021856 | 26 | 346 | 1.6 | 0.0 | 0.00 | 0.00 | 0.00 | 44 | 1014.8 |
| 20260906020829 | 26 | 38 | 1.6 | 0.0 | 0.00 | 0.00 | 0.00 | 43 | 1014.8 |
| 20260906015838 | 26 | 26 | 0.0 | 0.0 | 0.00 | 0.00 | 0.00 | 43 | 1014.8 |
| 20260906014856 | 26 | 26 | 0.0 | 0.0 | 0.00 | 0.00 | 0.00 | 43 | 1014.8 |
| 20260906013828 | 26 | 26 | 1.6 | 0.0 | 0.00 | 0.00 | 0.00 | 43 | 1014.9 |
| 20260906012827 | 26 | 26 | 0.0 | 0.0 | 0.00 | 0.00 | 0.00 | 43 | 1015.0 |
| 20260906011844 | 26 | 26 | 0.0 | 0.0 | 0.00 | 0.00 | 0.00 | 42 | 1015.2 |
| 20260906010829 | 26 | 26 | 0.0 | 0.0 | 0.00 | 0.00 | 0.00 | 42 | 1015.2 |
| 20260906005844 | 26 | 26 | 0.0 | 0.0 | 0.00 | 0.00 | 0.00 | 42 | 1015.2 |
| 20260906004845 | 26 | 26 | 0.0 | 0.0 | 0.00 | 0.00 | 0.00 | 42 | 1015.2 |
| 20260906003838 | 26 | 26 | 0.0 | 0.0 | 0.00 | 0.00 | 0.00 | 42 | 1015.1 |
| 20260906002839 | 26 | 26 | 0.0 | 0.0 | 0.00 | 0.00 | 0.00 | 42 | 1015.2 |
| 20260906001838 | 26 | 26 | 1.6 | 0.0 | 0.00 | 0.00 | 0.00 | 42 | 1015.3 |
| 20260906000827 | 26 | 26 | 0.0 | 0.0 | 0.00 | 0.00 | 0.00 | 41 | 1015.2 |
| 20260905235839 | 26 | 26 | 0.0 | 0.0 | 0.00 | 0.00 | 0.00 | 41 | 1015.3 |
| 20260905234841 | 27 | 26 | 0.0 | 0.0 | 0.00 | 0.00 | 0.00 | 40 | 1015.3 |
| 20260905233835 | 27 | 26 | 0.0 | 0.0 | 0.00 | 0.00 | 0.00 | 40 | 1015.4 |
| 20260905232834 | 27 | 26 | 1.6 | 0.0 | 0.00 | 0.00 | 0.00 | 40 | 1015.5 |
| 20260905231830 | 27 | 26 | 1.6 | 0.0 | 0.00 | 0.00 | 0.00 | 40 | 1015.6 |
| 20260905230833 | 27 | 26 | 3.2 | 0.0 | 0.00 | 0.00 | 0.00 | 40 | 1015.6 |
| 20260905225826 | 27 | 26 | 1.6 | 0.0 | 0.00 | 0.00 | 0.00 | 40 | 1015.7 |
| 20260905224831 | 27 | 77 | 0.0 | 0.0 | 0.00 | 0.00 | 0.00 | 40 | 1015.8 |
| 20260905223851 | 27 | 5 | 0.0 | 0.0 | 0.00 | 0.00 | 0.00 | 41 | 1015.8 |
| 20260905222839 | 27 | 342 | 1.6 | 0.0 | 0.00 | 0.00 | 0.00 | 41 | 1015.8 |
| 20260905221839 | 28 | 342 | 1.6 | 0.0 | 0.00 | 0.00 | 0.00 | 41 | 1015.9 |
| 20260905220852 | 28 | 80 | 0.0 | 0.0 | 0.00 | 0.00 | 0.00 | 41 | 1015.7 |
| 20260905215844 | 28 | 80 | 0.0 | 0.0 | 0.00 | 0.00 | 0.00 | 40 | 1015.7 |
| 20260905214834 | 28 | 80 | 0.0 | 0.0 | 0.00 | 0.00 | 0.00 | 40 | 1015.8 |
| 20260905213833 | 28 | 14 | 0.0 | 0.0 | 0.00 | 0.00 | 0.00 | 41 | 1015.8 |
| 20260905212852 | 28 | 14 | 1.6 | 0.0 | 0.00 | 0.00 | 0.00 | 41 | 1015.9 |
| 20260905211836 | 28 | 337 | 0.0 | 0.0 | 0.00 | 0.00 | 0.00 | 40 | 1015.8 |
| 20260905210838 | 28 | 337 | 0.0 | 0.0 | 0.00 | 0.00 | 0.00 | 41 | 1015.9 |
| 20260905205829 | 28 | 232 | 0.0 | 0.0 | 0.00 | 0.00 | 0.00 | 42 | 1015.8 |
| 20260905204836 | 28 | 232 | 0.0 | 0.0 | 0.00 | 0.00 | 0.00 | 42 | 1016.0 |
| 20260905203835 | 28 | 232 | 1.6 | 0.0 | 0.00 | 0.00 | 0.00 | 41 | 1015.9 |
| 20260905202839 | 28 | 227 | 1.6 | 0.0 | 0.00 | 0.00 | 0.00 | 39 | 1015.9 |
| 20260905201828 | 28 | 15 | 3.2 | 0.0 | 0.00 | 0.00 | 0.00 | 39 | 1015.8 |
| 20260905200831 | 28 | 9 | 4.8 | 0.0 | 0.00 | 0.00 | 0.00 | 39 | 1015.7 |
| 20260905195827 | 28 | 13 | 4.8 | 0.0 | 0.00 | 0.00 | 0.00 | 39 | 1015.7 |
| 20260905194850 | 28 | 16 | 4.8 | 0.0 | 0.00 | 0.00 | 0.00 | 39 | 1015.9 |
| 20260905193839 | 28 | 17 | 4.8 | 0.0 | 0.00 | 0.00 | 0.00 | 39 | 1015.9 |
| 20260905192843 | 28 | 13 | 4.8 | 0.0 | 0.00 | 0.00 | 0.00 | 39 | 1015.8 |
| 20260905191833 | 28 | 341 | 3.2 | 0.0 | 0.00 | 0.00 | 0.00 | 39 | 1015.9 |
| 20260905190838 | 28 | 9 | 4.8 | 0.0 | 0.00 | 0.00 | 0.00 | 39 | 1016.1 |
| 20260905185835 | 29 | 19 | 6.4 | 0.0 | 0.00 | 0.00 | 0.00 | 39 | 1016.0 |
| 20260905184843 | 29 | 344 | 8.0 | 0.0 | 0.00 | 0.00 | 0.00 | 39 | 1015.9 |
| 20260905183844 | 29 | 13 | 6.4 | 0.0 | 0.00 | 0.00 | 0.00 | 39 | 1015.8 |
| 20260905182849 | 29 | 16 | 6.4 | 0.0 | 0.00 | 0.00 | 0.00 | 38 | 1015.7 |
| 20260905181833 | 29 | 28 | 4.8 | 0.0 | 0.00 | 0.00 | 0.00 | 38 | 1015.6 |
| 20260905180835 | 29 | 30 | 6.4 | 0.0 | 0.00 | 0.00 | 0.00 | 39 | 1015.5 |
| 20260905175849 | 30 | 360 | 4.8 | 0.0 | 0.00 | 0.00 | 0.00 | 39 | 1015.5 |
| 20260905174844 | 30 | 57 | 4.8 | 0.0 | 0.00 | 0.00 | 0.00 | 38 | 1015.4 |
| 20260905173829 | 30 | 51 | 4.8 | 0.0 | 0.00 | 0.00 | 0.00 | 39 | 1015.3 |
| 20260905172851 | 30 | 5 | 4.8 | 0.0 | 0.00 | 0.00 | 0.00 | 38 | 1015.2 |
| 20260905171835 | 30 | 31 | 6.4 | 0.0 | 0.00 | 0.00 | 0.00 | 38 | 1015.1 |
| 20260905170845 | 30 | 22 | 8.0 | 0.0 | 0.00 | 0.00 | 0.00 | 38 | 1014.9 |
| 20260905165832 | 30 | 336 | 8.0 | 0.0 | 0.00 | 0.00 | 0.00 | 37 | 1014.9 |
| 20260905164832 | 31 | 30 | 8.0 | 0.0 | 0.00 | 0.00 | 0.00 | 37 | 1014.9 |
| 20260905163833 | 31 | 16 | 9.7 | 0.0 | 0.00 | 0.00 | 0.00 | 36 | 1014.9 |
| 20260905162853 | 31 | 51 | 9.7 | 0.0 | 0.00 | 0.00 | 0.00 | 35 | 1015.0 |
| 20260905161837 | 31 | 18 | 9.7 | 0.0 | 0.00 | 0.00 | 0.00 | 35 | 1014.9 |
| 20260905160838 | 31 | 360 | 9.7 | 0.0 | 0.00 | 0.00 | 0.00 | 34 | 1015.0 |
| 20260905155836 | 31 | 300 | 11.3 | 0.0 | 0.00 | 0.00 | 0.00 | 35 | 1015.0 |
| 20260905154835 | 32 | 334 | 11.3 | 0.0 | 0.00 | 0.00 | 0.00 | 34 | 1015.0 |
| 20260905153840 | 32 | 355 | 8.0 | 0.0 | 0.00 | 0.00 | 0.00 | 34 | 1014.9 |
| 20260905152841 | 32 | 5 | 11.3 | 0.0 | 0.00 | 0.00 | 0.00 | 35 | 1015.0 |
| 20260905151856 | 32 | 34 | 12.9 | 0.0 | 0.00 | 0.00 | 0.00 | 35 | 1015.0 |
| 20260905150842 | 32 | 20 | 9.7 | 0.0 | 0.00 | 0.00 | 0.00 | 34 | 1015.0 |
| 20260905145830 | 32 | 335 | 12.9 | 0.0 | 0.00 | 0.00 | 0.00 | 34 | 1014.9 |
| 20260905144848 | 32 | 344 | 11.3 | 0.0 | 0.00 | 0.00 | 0.00 | 35 | 1014.7 |
| 20260905143838 | 32 | 343 | 9.7 | 0.0 | 0.00 | 0.00 | 0.00 | 35 | 1014.8 |
| 20260905142836 | 32 | 25 | 9.7 | 0.0 | 0.00 | 0.00 | 0.00 | 34 | 1014.8 |
| 20260905141838 | 32 | 21 | 11.3 | 0.0 | 0.00 | 0.00 | 0.00 | 36 | 1014.8 |
| 20260905134829 | 33 | 324 | 9.7 | 0.0 | 0.00 | 0.00 | 0.00 | 36 | 1014.8 |
| 20260905133853 | 32 | 34 | 12.9 | 0.0 | 0.00 | 0.00 | 0.00 | 36 | 1014.9 |
| 20260905132842 | 33 | 19 | 9.7 | 0.0 | 0.00 | 0.00 | 0.00 | 36 | 1015.0 |
| 20260905131845 | 33 | 33 | 11.3 | 0.0 | 0.00 | 0.00 | 0.00 | 36 | 1015.1 |
| 20260905130835 | 33 | 347 | 9.7 | 0.0 | 0.00 | 0.00 | 0.00 | 36 | 1015.1 |
| 20260905125829 | 32 | 17 | 14.5 | 0.0 | 0.00 | 0.00 | 0.00 | 35 | 1015.0 |
| 20260905124831 | 32 | 123 | 12.9 | 0.0 | 0.00 | 0.00 | 0.00 | 35 | 1015.1 |
| 20260905123843 | 33 | 360 | 11.3 | 0.0 | 0.00 | 0.00 | 0.00 | 35 | 1015.2 |
| 20260905122827 | 33 | 311 | 9.7 | 0.0 | 0.00 | 0.00 | 0.00 | 36 | 1015.3 |
| 20260905121848 | 32 | 9 | 8.0 | 0.0 | 0.00 | 0.00 | 0.00 | 37 | 1015.3 |
| 20260905120840 | 32 | 35 | 12.9 | 0.0 | 0.00 | 0.00 | 0.00 | 37 | 1015.3 |
| 20260905115839 | 32 | 360 | 11.3 | 0.0 | 0.00 | 0.00 | 0.00 | 37 | 1015.5 |
| 20260905114839 | 32 | 9 | 14.5 | 0.0 | 0.00 | 0.00 | 0.00 | 37 | 1015.5 |
| 20260905113830 | 32 | 34 | 12.9 | 0.0 | 0.00 | 0.00 | 0.00 | 37 | 1015.7 |
| 20260905112832 | 32 | 12 | 14.5 | 0.0 | 0.00 | 0.00 | 0.00 | 36 | 1015.5 |